IZ1MEU-13 Weather Reports


time (UTC)temp
C
wind
direction
speed
KPH
gust
KPH
rain 1hr
cm
rain 24hr
cm
rain mn
cm
humidity
%
barometer
mb
20260506204802 11 0.0 0.0 0.00 0.00 0.00 68 1012.4
20260506202758 11 0.0 0.0 0.00 0.00 0.00 70 1011.5
20260506200754 11 0.0 0.0 0.00 0.00 0.00 70 1011.0
20260506194749 11 0.0 0.0 0.00 0.00 0.00 69 1010.8
20260506192745 11 0.0 0.0 0.00 0.00 0.00 68 1010.3
20260506190741 11 0.0 0.0 0.00 0.00 0.00 66 1010.1
20260506184737 13 0.0 0.0 0.00 0.00 0.00 61 1010.3
20260506182732 13 0.0 0.0 0.00 0.00 0.00 61 1009.2
20260506180728 14 0.0 0.0 0.00 0.00 0.00 60 1008.8
20260506174724 15 0.0 0.0 0.00 0.00 0.00 60 1008.7
20260506172720 15 0.0 0.0 0.00 0.00 0.00 59 1008.5
20260506170715 15 0.0 0.0 0.00 0.00 0.00 57 1008.2
20260506164711 15 0.0 0.0 0.00 0.00 0.00 55 1008.1
20260506162707 15 0.0 0.0 0.00 0.00 0.00 53 1008.0
20260506160703 16 0.0 0.0 0.00 0.00 0.00 52 1008.0
20260506154658 16 0.0 0.0 0.00 0.00 0.00 51 1008.0
20260506152654 16 0.0 0.0 0.00 0.00 0.00 50 1008.0
20260506150650 19 0.0 0.0 0.00 0.00 0.00 45 1007.8
20260506144646 20 0.0 0.0 0.00 0.00 0.00 45 1007.8
20260506142641 20 0.0 0.0 0.00 0.00 0.00 44 1007.9
20260506140637 20 0.0 0.0 0.00 0.00 0.00 45 1008.1
20260506134633 20 0.0 0.0 0.00 0.00 0.00 45 1008.4
20260506132629 21 0.0 0.0 0.00 0.00 0.00 47 1008.5
20260506130624 20 0.0 0.0 0.00 0.00 0.00 49 1008.6
20260506124620 19 0.0 0.0 0.00 0.00 0.00 49 1008.7
20260506122616 20 0.0 0.0 0.00 0.00 0.00 49 1008.6
20260506120612 18 0.0 0.0 0.00 0.00 0.00 51 1008.7
20260506114607 18 0.0 0.0 0.00 0.00 0.00 50 1008.8
20260506112603 18 0.0 0.0 0.00 0.00 0.00 51 1008.9
20260506110559 17 0.0 0.0 0.00 0.00 0.00 54 1009.1
20260506104555 17 0.0 0.0 0.00 0.00 0.00 56 1009.3
20260506102550 16 0.0 0.0 0.00 0.00 0.00 57 1009.5
20260506100546 15 0.0 0.0 0.00 0.00 0.00 58 1009.5
20260506094542 15 0.0 0.0 0.00 0.00 0.00 58 1009.7
20260506092538 15 0.0 0.0 0.00 0.00 0.00 58 1009.8
20260506090534 15 0.0 0.0 0.00 0.00 0.00 59 1009.7
20260506084529 14 0.0 0.0 0.00 0.00 0.00 60 1009.8
20260506082525 13 0.0 0.0 0.00 0.00 0.00 60 1010.0
20260506080521 13 0.0 0.0 0.00 0.00 0.00 61 1010.1
20260506072512 13 0.0 0.0 0.00 0.00 0.00 62 1010.1
20260506070508 12 0.0 0.0 0.00 0.00 0.00 64 1009.9
20260506062459 12 0.0 0.0 0.00 0.00 0.00 64 1009.9
20260506060455 12 0.0 0.0 0.00 0.00 0.00 65 1010.1
20260506050442 11 0.0 0.0 0.00 0.00 0.00 66 1010.5
20260506044437 10 0.0 0.0 0.00 0.00 0.00 66 1010.7
20260506042432 10 0.0 0.0 0.00 0.00 0.00 66 1010.9
20260506040428 11 0.0 0.0 0.00 0.00 0.00 66 1011.0
20260506034423 10 0.0 0.0 0.00 0.00 0.00 66 1011.2
20260506032418 10 0.0 0.0 0.00 0.00 0.00 66 1011.2
20260506030413 10 0.0 0.0 0.00 0.00 0.00 65 1011.6
20260506024409 10 0.0 0.0 0.00 0.00 0.00 66 1011.5
20260506022404 10 0.0 0.0 0.00 0.00 0.00 66 1011.9
20260506020400 10 0.0 0.0 0.00 0.00 0.00 67 1012.1
20260506014356 10 0.0 0.0 0.00 0.00 0.00 67 1012.0
20260506012351 10 0.0 0.0 0.00 0.00 0.00 65 1012.1
20260506010347 11 0.0 0.0 0.00 0.00 0.00 64 1012.5
20260506004343 11 0.0 0.0 0.00 0.00 0.00 64 1013.0
20260506002338 11 0.0 0.0 0.00 0.00 0.00 63 1013.4
20260506000334 11 0.0 0.0 0.00 0.00 0.00 63 1013.6
20260505234330 11 0.0 0.0 0.00 0.00 0.00 63 1014.0
20260505232326 11 0.0 0.0 0.00 0.00 0.00 63 1014.0
20260505230321 11 0.0 0.0 0.00 0.00 0.00 63 1013.9
20260505224317 11 0.0 0.0 0.00 0.00 0.00 63 1014.1
20260505222312 11 0.0 0.0 0.00 0.00 0.00 63 1014.4
20260505220308 11 0.0 0.0 0.00 0.00 0.00 63 1014.4
20260505214303 11 0.0 0.0 0.00 0.00 0.00 64 1014.4
20260505212259 11 0.0 0.0 0.00 0.00 0.00 63 1014.8